Regional Weather Roundup
Issued by NWS Kansas City/Pleasant Hill, MO

Home | Current Version | Previous Version | Graphics & Text | Print | Product List | Glossary Off
Versions: 1 2 3 4 5 6 7 8 9 10 11 12 13 14 15 16 17 18 19 20 21 22 23 24 25 26 27 28 29 30 31 32 33 34 35 36 37 38 39 40 41 42 43 44 45 46 47 48 49 50

000
ASUS43 KEAX 031510
RWREAX

WEATHER ROUNDUP FOR EASTERN KANSAS AND NORTHWEST MISSOURI
NATIONAL WEATHER SERVICE KANSAS CITY/PLEASANT HILL MO
1000 AM CDT FRI JUL 03 2015

KSZ040-057-103>105-MOZ028-029-037-043-031600-
...KANSAS CITY METROPOLITAN AREA...

CITY           SKY/WX    TMP DP  RH WIND       PRES   REMARKS
K.C. INTL      PTSUNNY   72  63  73 VRB6      29.97R
K.C. DOWNTOWN  CLOUDY    72  63  73 NE8       29.95S
LEES SUMMIT    PTSUNNY   71  63  75 NE8       29.97R
OLATHE - IXD   CLOUDY    67  65  93 NE5       29.97R
OLATHE - OJC   CLOUDY    67  64  90 N5        29.96R
LAWRENCE       CLOUDY    69  63  81 NE7       29.96S

$$

MOZ001>008-011>017-020>025-030>033-038>040-044>046-053-054-031600-
...NORTHERN AND CENTRAL MISSOURI...

CITY           SKY/WX    TMP DP  RH WIND       PRES   REMARKS
ST. JOSEPH     SUNNY     71  61  70 N6        29.98S
MOSBY          SUNNY     70  61  73 NE7       29.97S
WHITEMAN AFB   CLOUDY    68  64  85 NE7       29.95R
CLINTON        CLOUDY    70  70 100 NE7       29.95R
SEDALIA        CLOUDY    72  64  76 N3        29.96S
WARSAW         NOT AVBL
CHILLICOTHE      N/A     72  61  68 NE6       29.99S
KIRKSVILLE     SUNNY     70  61  73 NE8       29.99R

$$

MOZ041-047>049-056>058-063>065-088>090-097-031600-
...EASTERN AND SOUTHERN MISSOURI...

CITY           SKY/WX    TMP DP  RH WIND       PRES   REMARKS
ST. LOUIS INTL MOSUNNY   74  64  71 NW8       29.93R
SPIRIT OF STL  SUNNY     74  66  76 NW6       29.91R
COLUMBIA       SUNNY     73  63  70 NE8       29.95R
JEFFERSON CITY MOSUNNY   74  62  66 CALM      29.93R
MEXICO         MOSUNNY   72  68  88 NE7       29.95S
ROLLA          CLOUDY    70  64  81 CALM      29.93R
OSAGE BEACH    CLOUDY    70  64  83 E5        29.93S
SPRINGFIELD    LGT RAIN  70  67  90 CALM      29.93F
BRANSON        CLOUDY    73  68  83 W6        29.96S
JOPLIN         PTSUNNY   75  70  84 N6        29.94R
WEST PLAINS    CLOUDY    71  67  87 NE5       29.95S FOG
MALDEN         PTSUNNY   77  70  78 CALM      29.92S

$$

IAZ060-094-KSZ022-034>040-054-083-096-NEZ052-066-093-031600-
...KANSAS...SOUTHEAST NEBRASKA AND IOWA...

CITY           SKY/WX    TMP DP  RH WIND       PRES   REMARKS
TOPEKA         CLOUDY    68  65  90 NE5       29.97R
MANHATTAN      CLOUDY    68  65  90 E7        29.99R
EMPORIA        CLOUDY    73  67  81 N9        29.95R
CHANUTE        CLOUDY    73  71  93 CALM      29.94R
WICHITA        PTSUNNY   74  65  73 N16       29.97R
OMAHA          SUNNY     67  59  75 NW6       30.02S
LINCOLN        SUNNY     71  59  65 NE7       30.03S
FALLS CITY     SUNNY     70  60  70 NE5       29.98S
LAMONI         MOSUNNY   69  60  73 NE6       30.00R
DES MOINES     MOSUNNY   71  54  54 N5        30.00S

$$




USA.gov is the U.S. government's official web portal to all federal, state and local government web resources and services.